When you browse on this site, cookies collect data to enhance your experience and personalize the content and advertising you see.
Visit our Privacy Policy to learn more. By continuing to use the site, you agree to this use of cookies and data.
  • In Latvia
  • List of Countries
  • For 7 days
  • Water Temperature
  • Satellite Maps
  • Weather Map
  • Weather Widgets
  • user-avatar
    Login

    Hourly Weather Larihovo

    Today, 22 January, Tuesday

    Time Temperature Precipitation Wind Pressure Humidity
    00:00 -23°C° 0 mm 3 mps 745 mmHg 96%
    01:00 -23°C° 0 mm 3 mps 745 mmHg 97%
    02:00 -21°C° 0 mm 2 mps 745 mmHg 97%
    03:00 -23°C° 0 mm 3 mps 745 mmHg 96%
    04:00 -22°C° 0 mm 3 mps 746 mmHg 96%
    05:00 -21°C° 0 mm 3 mps 746 mmHg 95%
    06:00 -22°C° 0 mm 3 mps 746 mmHg 95%
    07:00 -22°C° 0 mm 3 mps 746 mmHg 96%
    08:00 -22°C° 0 mm 3 mps 747 mmHg 96%
    09:00 -21°C° 0 mm 3 mps 747 mmHg 95%
    10:00 -18°C° 0 mm 3 mps 747 mmHg 94%
    11:00 -17°C° 0 mm 3 mps 748 mmHg 93%
    12:00 -16°C° 0 mm 3 mps 748 mmHg 93%
    13:00 -16°C° 0 mm 3 mps 748 mmHg 92%
    14:00 -15°C° 0 mm 3 mps 748 mmHg 92%
    15:00 -16°C° 0 mm 3 mps 748 mmHg 93%
    16:00 -17°C° 0 mm 3 mps 748 mmHg 93%
    17:00 -18°C° 0 mm 3 mps 748 mmHg 94%
    18:00 -18°C° 0.1 mm 3 mps 748 mmHg 94%
    19:00 -18°C° 0.1 mm 3 mps 748 mmHg 94%
    20:00 -18°C° 0.1 mm 3 mps 748 mmHg 94%
    21:00 -19°C° 0 mm 3 mps 748 mmHg 94%
    22:00 -19°C° 0 mm 3 mps 748 mmHg 95%
    23:00 -21°C° 0 mm 3 mps 749 mmHg 95%

    Tomorrow, 23 January, Wednesday

    Time Temperature Precipitation Wind Pressure Humidity
    00:00 -21°C° 0 mm 3 mps 749 mmHg 96%
    01:00 -22°C° 0 mm 3 mps 749 mmHg 96%
    02:00 -20°C° 0 mm 2 mps 749 mmHg 96%
    03:00 -21°C° 0 mm 2 mps 750 mmHg 97%
    04:00 -21°C° 0 mm 2 mps 750 mmHg 97%
    05:00 -23°C° 0 mm 2 mps 750 mmHg 98%
    06:00 -23°C° 0 mm 2 mps 750 mmHg 98%
    07:00 -23°C° 0 mm 2 mps 750 mmHg 98%
    08:00 -24°C° 0 mm 2 mps 750 mmHg 97%
    09:00 -21°C° 0 mm 2 mps 751 mmHg 95%
    10:00 -20°C° 0 mm 2 mps 751 mmHg 92%
    11:00 -21°C° 0 mm 3 mps 751 mmHg 89%
    12:00 -19°C° 0 mm 3 mps 751 mmHg 89%
    13:00 -19°C° 0 mm 3 mps 751 mmHg 88%
    14:00 -19°C° 0 mm 3 mps 750 mmHg 88%
    15:00 -19°C° 0 mm 3 mps 750 mmHg 89%
    16:00 -19°C° 0 mm 3 mps 750 mmHg 90%
    17:00 -21°C° 0 mm 3 mps 750 mmHg 91%
    18:00 -21°C° 0 mm 3 mps 750 mmHg 92%
    19:00 -22°C° 0 mm 4 mps 749 mmHg 93%
    20:00 -22°C° 0 mm 4 mps 749 mmHg 94%
    21:00 -19°C° 0.1 mm 4 mps 749 mmHg 93%
    22:00 -17°C° 0.1 mm 4 mps 749 mmHg 92%
    23:00 -16°C° 0.1 mm 4 mps 748 mmHg 91%

    Day after tomorrow, 24 January, Thursday

    Time Temperature Precipitation Wind Pressure Humidity
    00:00 -15°C° 0.1 mm 5 mps 748 mmHg 91%
    01:00 -15°C° 0.1 mm 5 mps 748 mmHg 90%
    02:00 -14°C° 0.1 mm 5 mps 747 mmHg 89%
    03:00 -14°C° 0.1 mm 5 mps 747 mmHg 89%
    04:00 -13°C° 0.1 mm 5 mps 746 mmHg 89%
    05:00 -13°C° 0.1 mm 5 mps 746 mmHg 89%
    06:00 -13°C° 0.1 mm 5 mps 746 mmHg 90%
    07:00 -12°C° 0.1 mm 5 mps 746 mmHg 90%
    08:00 -12°C° 0.1 mm 5 mps 746 mmHg 90%
    09:00 -11°C° 0.1 mm 4 mps 747 mmHg 89%
    10:00 -10°C° 0.1 mm 4 mps 747 mmHg 87%
    11:00 -10°C° 0.1 mm 4 mps 747 mmHg 85%
    12:00 -12°C° 0 mm 4 mps 748 mmHg 85%
    13:00 -13°C° 0 mm 3 mps 748 mmHg 84%
    14:00 -15°C° 0 mm 3 mps 748 mmHg 83%
    15:00 -16°C° 0 mm 3 mps 749 mmHg 87%
    16:00 -18°C° 0 mm 3 mps 749 mmHg 91%
    17:00 -19°C° 0 mm 2 mps 750 mmHg 95%
    18:00 -19°C° 0 mm 2 mps 750 mmHg 95%
    19:00 -20°C° 0 mm 2 mps 750 mmHg 96%
    20:00 -21°C° 0 mm 2 mps 751 mmHg 97%
    21:00 -21°C° 0 mm 2 mps 751 mmHg 98%
    22:00 -21°C° 0 mm 2 mps 752 mmHg 98%
    23:00 -23°C° 0 mm 2 mps 752 mmHg 99%

    25 January, Friday

    Time Temperature Precipitation Wind Pressure Humidity
    00:00 -20°C° 0 mm 1 mps 752 mmHg 99%
    01:00 -20°C° 0 mm 1 mps 753 mmHg 99%
    02:00 -20°C° 0 mm 1 mps 753 mmHg 99%
    03:00 -20°C° 0 mm 1 mps 753 mmHg 98%
    04:00 -21°C° 0 mm 1 mps 753 mmHg 98%
    05:00 -21°C° 0 mm 1 mps 754 mmHg 98%
    06:00 -21°C° 0 mm 1 mps 754 mmHg 97%
    07:00 -21°C° 0 mm 1 mps 754 mmHg 97%
    08:00 -21°C° 0 mm 1 mps 754 mmHg 96%
    09:00 -20°C° 0 mm 0 mps 755 mmHg 94%
    10:00 -18°C° 0 mm 0 mps 755 mmHg 93%
    11:00 -17°C° 0 mm 0 mps 755 mmHg 91%
    12:00 -16°C° 0 mm 0 mps 755 mmHg 92%
    13:00 -16°C° 0 mm 0 mps 755 mmHg 92%
    14:00 -16°C° 0 mm 0 mps 755 mmHg 93%
    15:00 -17°C° 0 mm 0 mps 755 mmHg 94%
    16:00 -18°C° 0 mm 1 mps 755 mmHg 95%
    17:00 -19°C° 0 mm 1 mps 755 mmHg 96%
    18:00 -19°C° 0 mm 1 mps 754 mmHg 96%
    19:00 -19°C° 0 mm 1 mps 754 mmHg 96%
    20:00 -20°C° 0 mm 1 mps 754 mmHg 96%
    21:00 -20°C° 0 mm 1 mps 754 mmHg 97%
    22:00 -20°C° 0 mm 1 mps 754 mmHg 97%
    23:00 -20°C° 0 mm 1 mps 754 mmHg 97%

    26 January, Saturday

    Time Temperature Precipitation Wind Pressure Humidity
    00:00 -21°C° 0 mm 1 mps 754 mmHg 97%
    01:00 -21°C° 0 mm 1 mps 754 mmHg 96%
    02:00 -21°C° 0 mm 1 mps 754 mmHg 96%
    03:00 -21°C° 0 mm 1 mps 754 mmHg 95%
    04:00 -21°C° 0 mm 1 mps 754 mmHg 93%
    05:00 -22°C° 0 mm 1 mps 753 mmHg 92%
    06:00 -22°C° 0 mm 1 mps 753 mmHg 91%
    07:00 -22°C° 0 mm 1 mps 753 mmHg 90%
    08:00 -22°C° 0 mm 1 mps 753 mmHg 89%
    09:00 -21°C° 0 mm 1 mps 753 mmHg 87%
    10:00 -19°C° 0 mm 1 mps 753 mmHg 86%
    11:00 -18°C° 0 mm 1 mps 753 mmHg 84%
    12:00 -17°C° 0 mm 1 mps 753 mmHg 86%
    13:00 -17°C° 0 mm 1 mps 753 mmHg 88%
    14:00 -17°C° 0 mm 1 mps 753 mmHg 90%
    15:00 -18°C° 0 mm 1 mps 752 mmHg 91%
    16:00 -19°C° 0 mm 1 mps 752 mmHg 93%
    17:00 -21°C° 0 mm 1 mps 752 mmHg 94%
    18:00 -21°C° 0 mm 1 mps 752 mmHg 94%
    19:00 -21°C° 0 mm 1 mps 752 mmHg 95%
    20:00 -21°C° 0 mm 1 mps 752 mmHg 95%
    21:00 -21°C° 0 mm 1 mps 752 mmHg 94%
    22:00 -22°C° 0 mm 1 mps 752 mmHg 93%
    23:00 -22°C° 0 mm 1 mps 752 mmHg 93%

    27 January, Sunday

    Time Temperature Precipitation Wind Pressure Humidity
    00:00 -22°C° 0 mm 1 mps 751 mmHg 91%
    01:00 -22°C° 0 mm 1 mps 751 mmHg 90%
    02:00 -23°C° 0 mm 1 mps 751 mmHg 89%
    03:00 -23°C° 0 mm 1 mps 751 mmHg 88%
    04:00 -23°C° 0 mm 1 mps 751 mmHg 88%
    05:00 -23°C° 0 mm 1 mps 751 mmHg 88%
    06:00 -23°C° 0 mm 1 mps 751 mmHg 88%
    07:00 -23°C° 0 mm 1 mps 751 mmHg 88%
    08:00 -23°C° 0 mm 1 mps 751 mmHg 88%
    09:00 -25°C° 0 mm 2 mps 751 mmHg 87%
    10:00 -23°C° 0 mm 2 mps 751 mmHg 85%
    11:00 -21°C° 0 mm 2 mps 751 mmHg 83%
    12:00 -20°C° 0 mm 2 mps 751 mmHg 84%
    13:00 -20°C° 0 mm 2 mps 750 mmHg 85%
    14:00 -20°C° 0 mm 2 mps 750 mmHg 86%
    15:00 -20°C° 0 mm 2 mps 750 mmHg 87%
    16:00 -21°C° 0 mm 2 mps 750 mmHg 88%
    17:00 -23°C° 0 mm 2 mps 750 mmHg 89%
    18:00 -23°C° 0 mm 2 mps 750 mmHg 88%
    19:00 -21°C° 0 mm 2 mps 750 mmHg 88%
    20:00 -23°C° 0 mm 3 mps 750 mmHg 87%
    21:00 -23°C° 0 mm 3 mps 750 mmHg 87%
    22:00 -23°C° 0 mm 3 mps 750 mmHg 86%
    23:00 -22°C° 0 mm 3 mps 750 mmHg 85%
    Show more